Regional Weather Roundup
Issued by NWS Wakefield, VA

Home | Current Version | Previous Version | Graphics & Text | Print | Product List | Glossary On
Versions: 1 2 3 4 5 6 7 8 9 10 11 12 13 14 15 16 17 18 19 20 21 22 23 24 25 26 27
000
ASUS41 KAKQ 200210
RWRAKQ

REGIONAL WEATHER ROUNDUP
NATIONAL WEATHER SERVICE WAKEFIELD VA
1000 PM EDT SAT APR 19 2014

Note: "fair" indicates few or no clouds below 12,000 feet with no
significant weather and/or obstructions to visibility. * = Denotes
station may not report precipitation (e.g., rain,snow,etc.),
thunder or fog.

VAZ042-051-052>054-056-200300-
NORTHERN VIRGINIA

CITY           SKY/WX    TMP DP  RH WIND       PRES   REMARKS
WASH NATIONAL  CLOUDY    60  31  33 N8        30.29R
DULLES         CLOUDY    55  26  32 NE8       30.29R
FORT BELVOIR   CLOUDY    57  29  34 VRB2      30.28R
QUANTICO       CLOUDY    55  44  66 NW8       30.28R
FREDERICKSBRG* CLOUDY    54  45  71 CALM      30.27R
STAFFORD*      CLOUDY    52  42  71 CALM      30.31S
WARRENTON      CLOUDY    57  36  45 NE5       30.28R
CULPEPER*      CLOUDY    57  30  35 CALM      30.29R
MANASSAS*      CLOUDY    57  27  30 N6        30.28S
LEESBURG*      CLOUDY    55  32  41 N3        30.31R
WINCHESTER     CLOUDY    52  32  46 CALM      30.30R
$$

VAZ048-049-060>072-079>083-200300-
CENTRAL AND SOUTH CENTRAL VIRGINIA...AND NORTH CENTRAL NORTH CAROLINA

CITY           SKY/WX    TMP DP  RH WIND       PRES   REMARKS
RICHMOND       CLOUDY    55  42  61 E3        30.27R
CHESTERFIELD*  NOT AVBL
HANOVER        CLOUDY    51  43  74 CALM      30.28R
TAPPAHANNOCK*  CLOUDY    55  42  61 CALM      30.27R
CHARLOTTSVILLE CLOUDY    58  39  49 NE7       30.27R
ORANGE*        CLOUDY    52  43  71 CALM      30.29S
LOUISA*        CLOUDY    50  41  71 CALM      30.26R
FARMVILLE*     CLOUDY    54  41  62 CALM      30.25R
SOUTH HILL*    CLOUDY    52  50  93 CALM      30.31R
ROANOKE RAPIDS CLOUDY    54  45  71 NE6       30.25R
RALEIGH        LGT RAIN  52  44  74 NE10      30.22R
$$

VAZ088>098-200300-
SOUTHEAST VIRGINIA

CITY           SKY/WX    TMP DP  RH WIND       PRES   REMARKS
NORFOLK        CLOUDY    50  41  71 NE10      30.24R
VIRGINIA BEACH CLOUDY    49  41  74 NE16      30.23R
NORFOLK NAVAL  CLOUDY    51  41  68 NE13      30.26R
WEST POINT*    CLOUDY    55  31  39 NE3       30.28S
NEWPORT NEWS   CLOUDY    55  41  59 NE7       30.26R
LANGLEY AFB    CLOUDY    51  44  78 NE12      30.25R
FORT EUSTIS    CLOUDY    53  44  70 NE6       30.24R
WILLIAMSBURG*  CLOUDY    54  46  76 E3        30.26S
FRANKLIN*      CLOUDY    52  43  71 CALM      30.26R
WAKEFIELD      CLOUDY    52  45  77 CALM      30.26R
$$

VAZ020-022-025-037-045-200300-
WESTERN AND SOUTHWEST VIRGINIA

CITY           SKY/WX    TMP DP  RH WIND       PRES   REMARKS
STAUNTON*      CLOUDY    53  36  51 NE3       30.28S
HOT SPRINGS VA CLOUDY    48  37  66 E9        30.32R
LYNCHBURG      CLOUDY    56  42  59 CALM      30.27R
DANVILLE       CLOUDY    56  46  69 E5        30.25R
MARTINSVILLE   CLOUDY    57  42  57 NE3       30.27S
ROANOKE        CLOUDY    56  40  55 CALM      30.28R
BLACKSBURG     CLOUDY    54  43  66 CALM      30.29R
DUBLIN*        CLOUDY    52  40  64 CALM      30.28R
MARION*        CLOUDY    52  36  54 E3        30.28R
HILLSVILLE*    CLOUDY    54  34  47 E5        30.29R
RICHLANDS*     CLOUDY    59  36  41 SE7       30.24R
WISE*          CLOUDY    57  30  35 NE6       30.24R
ABINGDON*      CLOUDY    59  34  39 E8        30.23R
$$

MDZ021>025-VAZ099-100-200300-
SOUTHERN MARYLAND AND THE DELMARVA PENINSULA

CITY           SKY/WX    TMP DP  RH WIND       PRES   REMARKS
PATUXENT RIVER CLOUDY    52  39  61 SE5       30.28R
BAY BRIDGE APT CLOUDY    55  39  54 E7        30.30R
LEONARDTOWN    CLOUDY    54  32  43 E6        30.29R
DOVER          CLOUDY    49  43  81 S3        30.27R
GEORGETOWN     CLOUDY    49  38  65 NE3       30.30R
EASTON         NOT AVBL
CAMBRIDGE      CLOUDY    54  32  43 E3        30.29R
SALISBURY      CLOUDY    51  37  58 E6        30.28R
OCEAN CITY     CLOUDY    49  39  68 NE6       30.29R
WALLOPS ISLAND CLOUDY    52  41  66 E12       30.28R
ACCOMACK*      CLOUDY    50  34  53 E13       30.26R
$$

NCZ012>017-030>032-200300-
EASTERN NORTH CAROLINA

CITY           SKY/WX    TMP DP  RH WIND       PRES   REMARKS
ELIZABETH CITY LGT RAIN  50  44  80 N10       30.23R
AHOSKIE*       CLOUDY    49  43  78 CALM      30.26R
EDENTON*       DRIZZLE   49  42  79 N8G16     30.22S
CURRITUCK*     CLOUDY    50  43  76 N8        30.23R
KILL DEVIL HLS DRIZZLE   49  47  93 N9        30.17R
MANTEO         CLOUDY    50  48  93 NE16G23   30.17R
CAPE HATTERAS  LGT RAIN  53  53 100 NE10G21   30.12R FOG
GOLDSBORO      CLOUDY    50  45  85 NE9       30.18R
WASHINGTON     CLOUDY    50  45  83 N7        30.21R
GREENVILLE     CLOUDY    50  43  76 NE12      30.22R
NEW BERN       LGT RAIN  50  47  89 N13       30.17S
WILMINGTON     LGT RAIN  52  49  89 N20G29    30.08R
$$

VAZ048-200300-
ELSEWHERE

CITY           SKY/WX    TMP DP  RH WIND       PRES   REMARKS
HARRISBURG PA  CLOUDY    57  22  25 NE6       30.32R
BALTIMORE      CLOUDY    58  28  32 NE5       30.29R
ANNAPOLIS      CLOUDY    59  34  39 NE5       30.29R
ANDREWS AFB    CLOUDY    54  34  46 NE8       30.28R
WILMINGTON DE  CLOUDY    52  43  71 S5        30.31R
PHILADELPHIA   CLOUDY    56  37  49 S5        30.31R
WILDWOOD NJ*   CLOUDY    46  36  66 CALM      30.31S
ATLANTIC CITY  CLOUDY    45  37  73 CALM      30.31R
HENDERSON NC   CLOUDY    51  45  77 NE6       30.24S
GREENSBORO     CLOUDY    57  42  57 NE6       30.22R
ROCKY MOUNT    CLOUDY    52  43  71 NE9       30.22R
FAYETTEVILLE   CLOUDY    50  45  83 N13       30.16S
CHARLOTTE      LGT RAIN  52  48  86 N10       30.21S
$$

VAZ100-200300-
MARINE

STATION/POSITION TIME  TEMP    WIND        PRES    WAVE   SWELL
                       AIR SEA DIR/SP/G            HT/PER HT/PER
                 (UTC) (F)     (DEG/KT/KT) (MB)    (FT/S) (FT/S)
44066 TX TWR #4  0200   47 45  320/  2/  2 1025.9R   4/10   3/10
CAPE MAY NJ      0200   49 54   CALM  /  1 1025.7S
LEWES DE         0200   49 50   70/  2/  2 1025.2S
15NM E FENWICK I 0200   47 47              1025.5R   4/ 9
OCEAN-CITY-INLET 0200   49 49   70/  5/  7 1025.2R
WACHAPREAGUE VA  0200   49 54   50/ 10/ 14 1024.2S
THOMAS POINT MD  0200   56 53  110/ 15/ 16 1026.1R
GOOSES REEF MD   0200   55     130/  8/ 12 1026.0R
COVE POINT MD    0200   55     130/  8/ 10 1025.1R
SOLOMONS ISLAND  0200      54                N/A
BISHOPS HEAD MD  0200   54 57   70/ 11/ 13 1024.7F
PINEY POINT MD   0200          110/  8/  9   N/A
POTOMAC MD       0200   53      90/  6/  6 1024.5R
CAMBRIDGE MD     0200   55 57   80/  8/  9 1025.0S
LEWISETTA VA     0200   56 54  120/ 12/ 14 1024.7R
RAPPAHANNOCK LGT 0200           60/ 14/ 15 1024.9R
STINGRAY PT      0200   54      60/  6/  8 1024.8R
YORK RVR RNG VA  0200   53      80/ 12/ 13 1023.7R
YORKTOWN VA      0200   54 55   60/  8/  9 1024.5R
JAMESTOWN VA     0200   57      90/  2/  4   N/A
DOMINION TERM VA 0200   53      30/  5/  9 1024.0S
KIPTOPEKE VA     0200      52   60/  9/ 14   N/A
CHES BAY BRIDGE  0200   49 51   30/ 18/ 20 1023.4S
CAPE HENRY VA    0200   49      40/ 18/ 21   N/A
CHESAPEAKE LGHT  0100   47      40/ 21/ 22 1023.4F
WILLOUBY STN VA  0200   51      50/ 15/ 17 1023.2R
S CRANEY ISL VA  0200           20/ 13/ 15 1024.0R
CAPE HENRY BUOY  0200      47                N/A     5/ 8   2/11
1ST LANDING BUOY 0200      46                N/A     4/ 8   3/ 8
64NM E OF VA BCH 0200   51 49   30/ 17/ 21 1021.2S   6/ 8   3/ 8
DUCK PIER NC     0200   49 49   20/ 19/ 22 1021.3R
44100 DUCK FRF   0200      48                N/A     6/11   2/11
44056 DUCK FRF   0200      47                N/A     6/ 6   2/11
OREGON INLET NC  0200   51 51   10/ 12/ 19 1020.6R
HATTERAS NC      0200   54 56   20/ 11/ 18 1019.9S
CAPE LOOKOUT NC  0100   54      10/ 23/ 28 1018.9R
FRYING PAN SHLS  0200   63 67   50/ 31/ 37 1014.1R  11/ 8   2/17
$$



USA.gov is the U.S. government's official web portal to all federal, state and local government web resources and services.